Regional Weather Roundup
Issued by NWS

Home | Current Version | Previous Version | Text Only | Print | Product List | Glossary Off
Versions: 1 2 3 4 5 6 7 8 9 10 11 12 13 14 15 16 17 18 19 20 21 22 23 24 25 26 27 28 29 30 31 32 33 34 35 36 37 38 39 40 41 42 43 44 45 46 47 48 49 50

000
ASUS43 KOAX 300510
RWRNE

WEATHER ROUNDUP FOR NEBRASKA
NATIONAL WEATHER SERVICE OMAHA NE
1200 AM CDT SUN APR 30 2017

NOTES: SATELLITE DATA IS BEING USED TO AUGMENT CLOUD COVER ABOVE
       12000 FEET.
       "FAIR" INDICATES FEW OR NO CLOUDS BELOW 12,000 FEET WITH NO
       SIGNIFICANT WEATHER AND/OR OBSTRUCTIONS TO VISIBILITY.

  * THESE STATIONS DO NOT REPORT WEATHER SUCH AS RAIN...SNOW OR FOG.

NEZ001>004-019>022-054>056-300600-
NEBRASKA PANHANDLE

CITY           SKY/WX    TMP DP  RH WIND       PRES   REMARKS
SCOTTSBLUFF    CLEAR     33  26  75 NW5       30.18F WCI  29
ALLIANCE       MOCLDY    35  27  72 N8        30.15F WCI  29
CHADRON        CLEAR     32  28  85 W7        30.18F WCI  26
KIMBALL        CLEAR     34  28  77 NW9       30.14F WCI  26
SIDNEY         PTCLDY    37  28  70 N14       30.13F WCI  28
$$

NEZ057>060-069>072-079>082-300600-
SOUTHWEST NEBRASKA

CITY           SKY/WX    TMP DP  RH WIND       PRES   REMARKS
NORTH PLATTE   CLOUDY    44  21  40 NE21G31   30.09F
IMPERIAL       CLOUDY    41  26  55 N14       30.07F
LEXINGTON      LGT RAIN  39  29  68 NE25G39   30.05F WCI  28
MCCOOK         MIX PCPN  36  33  89 NE26G35   30.04F WCI  24
OGALLALA       CLOUDY    44  26  50 NE13      30.11S
$$

NEZ005>010-023>029-035>040-094-300600-
NORTH CENTRAL NEBRASKA

CITY           SKY/WX    TMP DP  RH WIND       PRES   REMARKS
VALENTINE      CLOUDY    46  21  37 NE6       30.17S
AINSWORTH      CLOUDY    42  28  58 NE5       30.15S
BROKEN BOW     CLOUDY    43  25  49 NE20G29   30.09S
O`NEILL        CLOUDY    45  24  42 NE10      30.11F
ORD            CLOUDY    44  25  47 NE14      30.08R
THEDFORD       CLOUDY    44  25  47 NE10      30.15R
$$

NEZ041-046>049-061>064-073>077-083>087-300600-
SOUTH CENTRAL NEBRASKA

CITY           SKY/WX    TMP DP  RH WIND       PRES   REMARKS
GRAND ISLAND   LGT RAIN  38  36  92 N18G25    30.03S WCI  28
AURORA         LGT RAIN  38  37  94 N23G29    30.00S WCI  28
HASTINGS       RAIN      37  35  92 N18       30.04R FOG     WCI  27
HEBRON         LGT RAIN  39  38  98 NE17      29.93F WCI  30
HOLDREGE       LGT SNOW  36  33  89 N25G33    30.00F WCI  23
KEARNEY *      CLOUDY    37  30  75 N21       30.05F WCI  27
YORK           MIX PCPN  39  39 100 NE21G31   29.98F WCI  29
$$

NEZ011>018-030>034-042>045-300600-
NORTHEAST NEBRASKA

CITY           SKY/WX    TMP DP  RH WIND       PRES   REMARKS
NORFOLK        CLOUDY    44  29  55 NE15      30.05F
ALBION         CLOUDY    43  32  65 NE21G28   30.06F
BLAIR          LGT RAIN  40  38  95 NE20G26   29.95F WCI  30
FREMONT        CLOUDY    40  39  95 N14G22    29.99F WCI  32
TEKAMAH        LGT RAIN  42  36  79 NE17G25   30.02F
WAYNE          CLOUDY    45  31  59 NE17G25   30.05F
$$

NEZ050>053-065>068-078-088>093-300600-
SOUTHEAST NEBRASKA

CITY           SKY/WX    TMP DP  RH WIND       PRES   REMARKS
LINCOLN        LGT RAIN  40  39  97 NE21G29   29.97F FOG     WCI  30
OMAHA EPPLEY   DRIZZLE   41  36  82 NE22      29.96F
BEATRICE       LGT RAIN  40  39  97 NE17G23   29.90F WCI  31
FALLS CITY     CLOUDY    41  40  96 NE13G24   29.85F
NEBRASKA CITY  DRIZZLE   39  39 100 NE21G28   29.90F WCI  29
PLATTSMOUTH    LGT RAIN  40  37  89 N14G25    29.93F WCI  32
$$

NEZ044-045-051>053-067-300600-
OMAHA AREA

CITY           SKY/WX    TMP DP  RH WIND       PRES   REMARKS
OMAHA EPPLEY   DRIZZLE   41  36  82 NE22      29.96F
BLAIR          LGT RAIN  40  38  95 NE20G26   29.95F WCI  30
FREMONT        CLOUDY    40  39  95 N14G22    29.99F WCI  32
MILLARD        DRIZZLE   42  40  91 NE10G18   29.96F
OFFUTT AFB     LGT RAIN  40  38  91 N10G21    29.94F WCI  34
PLATTSMOUTH    LGT RAIN  40  37  89 N14G25    29.93F WCI  32
WAHOO          LGT RAIN  40  38  93 N22G28    29.97F WCI  29
$$




USA.gov is the U.S. government's official web portal to all federal, state and local government web resources and services.